Lid_Strength_Index
-1 -1 -0 -0 -0 0 0 0 1 1 1 2 2 1 1 -1 -1 3 6 4 3 -0 1 7 7 7 7 7 6 8 12 13 12 12 10 8 9 8 8 9 10 9 9 7 5
-1 -1 -1 -0 -0 -0 0 0 1 1 1 1 1 2 1 -1 3 5 2 -0 -0 -1 8 9 10 8 9 8 8 10 13 11 9 10 10 8 8 8 9 10 11 10 8 5 5
-1 -1 -1 -1 -1 -0 1 0 1 2 2 1 1 1 1 1 7 7 0 -0 -1 -0 6 7 7 8 10 9 9 9 12 10 9 8 7 8 8 7 10 11 10 11 8 6 6
-1 -1 -0 -0 -1 -0 0 1 1 1 2 2 2 2 1 3 15 5 -0 -0 -1 2 5 8 8 11 11 11 9 11 9 9 8 8 7 8 8 9 9 8 8 9 7 6 6
-0 -0 -0 -0 -0 -0 0 1 1 1 2 2 2 2 3 8 7 3 0 0 3 4 6 8 11 10 11 11 10 11 9 9 8 9 7 6 8 9 9 8 9 7 7 6 6
-0 0 0 0 0 0 -0 -0 0 1 1 2 2 2 5 11 4 4 5 4 4 5 7 8 10 9 11 10 10 9 9 8 9 8 7 8 8 8 8 9 9 7 7 7 6
-1 -1 -1 -1 -0 -0 -0 -0 -0 0 1 1 1 3 6 8 4 3 3 4 5 5 7 7 8 10 10 11 9 9 11 10 10 9 9 7 10 9 8 9 9 8 8 7 7
-1 -1 -1 -1 -1 -1 -1 -1 -1 -1 0 1 1 5 10 3 4 4 3 4 5 5 6 6 7 9 10 9 9 11 12 14 11 9 8 8 12 8 8 9 9 9 9 7 7
-1 -1 -2 -2 -1 -2 -2 -2 -2 -1 -1 0 5 6 11 2 5 4 4 6 7 6 6 5 8 10 10 13 13 13 16 14 12 9 9 9 11 9 8 9 9 9 9 8 7
-1 -2 -2 -2 -2 -2 -2 -1 -1 -1 1 1 3 8 7 7 5 6 6 6 7 8 8 9 11 13 13 13 17 15 15 14 14 12 9 11 11 9 9 10 9 9 9 8 7
-1 -1 -2 -1 -2 -2 -1 2 4 5 3 6 7 8 7 5 6 7 6 7 8 9 13 11 14 16 14 12 12 12 13 14 13 11 11 11 10 9 9 10 10 11 10 9 7
-1 -1 -1 -2 -2 -2 0 4 4 3 8 4 5 6 4 4 7 6 5 9 10 13 12 14 16 13 11 11 11 12 14 15 12 11 11 11 11 10 9 9 9 9 10 9 8
-0 -0 -1 -1 -1 -0 2 3 -0 1 8 7 5 6 5 4 8 6 6 9 11 13 13 15 14 11 12 12 13 13 13 14 14 13 13 14 14 13 11 9 9 9 8 8 8
1 0 0 -1 2 2 3 1 -0 0 12 10 8 6 5 5 8 4 5 8 11 13 12 13 11 13 13 13 12 15 12 12 12 14 17 14 19 15 13 11 11 9 8 8 8
1 1 1 0 3 4 2 0 0 3 20 10 9 3 5 7 7 7 5 8 12 12 12 14 14 13 14 13 11 13 11 12 12 14 16 17 19 16 16 15 13 11 9 8 8
1 1 1 2 3 3 1 0 2 13 19 12 9 9 9 8 8 7 7 8 9 11 12 13 12 12 13 11 10 10 12 13 13 14 18 15 17 18 16 14 13 12 11 8 9
-1 0 1 2 5 2 1 4 14 18 10 13 12 10 10 11 10 9 10 11 14 16 16 15 14 12 11 13 11 10 13 19 20 19 19 17 18 14 14 13 13 13 12 11 10
-2 -2 -0 1 2 2 3 9 18 13 12 10 10 10 12 10 11 11 11 13 12 15 17 17 19 14 12 12 13 12 12 18 23 21 19 18 19 16 12 10 12 13 13 13 13
-2 2 2 1 -1 0 7 15 15 13 10 11 11 13 13 11 11 12 12 12 11 13 16 17 17 14 12 10 10 13 14 12 18 24 19 19 17 14 13 14 14 13 13 13 13
2 3 3 0 -0 3 9 13 12 9 9 9 14 12 15 13 13 13 13 11 11 10 13 14 17 14 13 11 11 11 10 15 17 24 23 19 19 18 15 15 14 14 14 13 13
2 6 4 0 1 6 13 13 11 8 10 10 11 13 12 13 12 13 13 11 9 10 11 13 15 16 13 13 13 14 14 13 14 17 20 21 19 15 13 13 14 13 13 12 12
4 10 4 1 9 9 11 10 8 9 8 10 9 10 12 11 13 13 13 11 9 9 12 11 14 17 16 13 12 13 12 11 15 17 19 18 18 14 14 13 14 14 13 12 12
7 7 2 3 14 11 9 9 8 11 10 11 11 9 10 11 14 12 11 8 8 9 11 11 15 23 18 15 14 14 13 11 12 15 17 19 18 13 13 13 14 13 13 13 13
6 11 7 5 9 10 11 11 11 8 9 9 10 9 10 11 10 12 12 9 8 9 7 8 13 14 17 16 15 16 14 14 12 16 16 16 17 15 13 13 13 13 13 13 13
6 12 11 12 10 9 9 10 12 12 8 8 11 11 11 13 12 13 10 11 9 7 8 10 17 14 14 14 14 14 13 13 14 12 15 16 17 15 13 12 13 13 13 13 12
8 10 7 16 9 10 10 13 11 11 10 12 13 10 10 13 11 13 11 12 11 10 11 11 18 14 19 13 13 14 13 12 11 13 12 14 15 14 11 11 13 13 12 12 12
5 4 9 10 10 12 12 11 11 9 9 9 10 12 11 10 9 8 8 8 9 10 12 13 16 20 17 14 14 20 15 14 13 12 12 15 12 13 13 12 12 13 12 11 11